Regional Weather Roundup
Issued by NWS

Home | Current Version | Previous Version | Text Only | Print | Product List | Glossary On
Versions: 1 2 3 4 5 6 7 8 9 10 11 12 13 14 15 16 17 18 19 20 21 22 23 24 25 26 27 28 29 30 31 32 33 34 35 36 37 38 39 40 41 42 43 44 45 46 47 48 49 50
000
ASUS43 KMPX 191610
RWRMN
WEATHER ROUNDUP FOR MINNESOTA
NATIONAL WEATHER SERVICE TWIN CITIES/CHANHASSEN MN
1000 AM CST FRI DEC 19 2014


NOTE: "FAIR" INDICATES FEW OR NO CLOUDS BELOW 12,000 FEET WITH NO
SIGNIFICANT WEATHER AND/OR OBSTRUCTIONS TO VISIBILITY. N/A MEANS
CURRENT SKY AND/OR WEATHER CONDITIONS ARE NOT AVAILABLE.

MNZ060>063-068>070-191700-
   Twin Cities Metro

CITY           SKY/WX    TMP DP  RH WIND       PRES   REMARKS
TWIN CITIES    CLOUDY    24  19  81 SE6       30.25S WCI  17
ST PAUL        CLOUDY    24  20  84 SE10      30.27S WCI  14
CRYSTAL        CLOUDY    25  20  81 SE6       30.23S HAZE    WCI  18
BLAINE         CLOUDY    27  21  80 SE8       30.24R WCI  18
LAKEVILLE      MOSUNNY   25  21  86 SE7       30.24S FOG     WCI  17
EDEN PRAIRIE   CLOUDY    25  21  85 SE8       30.23S FOG     WCI  16
SOUTH ST PAUL  MOSUNNY   25  20  81 SE6       30.26S WCI  18
LAKE ELMO      CLOUDY    27  21  80 S5        30.26S WCI  21
$$
MNZ001>005-007-008-013>017-022>024-027-028-191700-
   Northwest Minnesota

CITY           SKY/WX    TMP DP  RH WIND       PRES   REMARKS
BEMIDJI        CLOUDY    20  18  91 SE8       30.12S FOG     WCI  10
HALLOCK        CLOUDY    25  23  93 S12       30.07S FOG     WCI  14
ROSEAU         CLOUDY    25  18  74 S12       30.10S WCI  14
WARROAD        CLOUDY    21  18  86 SE10      30.11S WCI  10
THIEF RVR FALL CLOUDY    23  21  93 S10       30.09S WCI  12
CROOKSTON      CLOUDY    25  25 100 S13       30.10S FOG     WCI  13
FOSSTON        CLOUDY    21  19  93 SE9       30.10S FOG     WCI  11
DETROIT LAKES  FOG       25  25 100 S10       30.10F VSB 3/4 WCI  15
MOORHEAD       CLOUDY    27  27 100 SE13      30.10S FOG     WCI  16
PARK RAPIDS    FOG       21  19  92 SE12      30.12S VSB 1   WCI   9
MAHNOMEN       CLOUDY    23  21  93 SE10      30.09F FOG     WCI  12
$$
MNZ006-009>011-018-025>026-191700-
   North Central Minnesota

CITY           SKY/WX    TMP DP  RH WIND       PRES   REMARKS
BAUDETTE       FLURRIES  21  17  84 S8        30.12S WCI  11
FLAG ISLAND    CLOUDY    21  18  86 S14       30.11F WCI   8
INTL FALLS     CLOUDY    22  17  81 S8        30.16S WCI  12
WASKISH        LGT SNOW  21  19  93 SE3       30.13F
BIG FORK       PTSUNNY   21  18  86 S6        30.17S WCI  14
LONGVILLE      CLOUDY    19  18  93 SE8       30.16F WCI   9
GRAND RAPIDS   CLOUDY    19  16  86 S8        30.17S WCI   9
CRANE LAKE     CLOUDY    19  18  93 SE5       30.22S WCI  13
ORR            CLOUDY    19  16  86 S9        30.16S WCI   9
COOK           PTSUNNY   19  18  93 S7        30.19S WCI  10
WALKER         CLOUDY    19  17  92 SE6       30.14S FOG     WCI  11
$$
MNZ012-019>021-037-191700-
   Northeast Minnesota

CITY           SKY/WX    TMP DP  RH WIND       PRES   REMARKS
DULUTH         CLOUDY    22  19  89 S7        30.21S FOG     WCI  13
ELY            CLOUDY    19  18  93 S7        30.20S WCI  10
HIBBING        CLOUDY    21  17  84 S5        30.20S WCI  15
EVELETH        CLOUDY    21  19  93 S6        30.22R WCI  14
DULUTH HARBOR  CLOUDY    25  21  86 CALM      30.28S
TWO HARBORS    CLOUDY    25  19  80 CALM      30.22S
SILVER BAY     CLOUDY    25  21  86 CALM      30.23S
GRAND MARAIS     N/A     29  23  78 S10       30.28S WCI  20
G MARAIS ARPRT CLOUDY    21  18  86 S8        30.20S WCI  12
$$
MNZ029>031-032-039>041-046>048-054>057-064-191700-
   West Central Minnesota

CITY           SKY/WX    TMP DP  RH WIND       PRES   REMARKS
FERGUS FALLS   CLOUDY    25  25 100 SE12      30.14S FOG     WCI  14
WHEATON        CLOUDY    27  25  93 SE9       30.13R FOG     WCI  17
MORRIS         MOSUNNY   27  27 100 S13       30.12S FOG     WCI  16
ALEXANDRIA     CLOUDY    25  23  92 SE10      30.13S FOG     WCI  15
ELBOW LAKE     CLOUDY    25  24  96 SE14      30.11F FOG     WCI  13
WADENA         FOG       21  19  93 NW8       30.13S VSB 1   WCI  12
GLENWOOD       FOG       25  25 100 SE8       30.15R VSB 1   WCI  16
APPLETON       CLOUDY    30  27  86 S5        30.14S FOG     WCI  25
BENSON         CLOUDY    28  25  86 S9        30.15S FOG     WCI  20
ORTONVILLE     CLOUDY    28  25  86 S8        30.11S WCI  20
MADISON        SUNNY     34  30  86 CALM      30.14S FOG
WILLMAR        CLOUDY    28  27  93 SE8       30.18S FOG     WCI  20
$$
MNZ033>034-036-042>043-049>051-058-059-191700-
   Central Minnesota

CITY           SKY/WX    TMP DP  RH WIND       PRES   REMARKS
ST CLOUD       CLOUDY    23  19  85 SE9       30.20F FOG     WCI  13
SAUK CENTRE    FOG       23  22  97 SE9       30.17R VSB 3/4 WCI  13
PAYNESVILLE    FOG       22  22 100 E8        30.18S VSB 1   WCI  12
AITKIN         CLOUDY    25  18  74 SE6       30.18S WCI  18
PINE RIVER     CLOUDY    19  19 100 SE9       30.19S FOG     WCI   9
BRAINERD       CLOUDY    20  18  92 SE8       30.18F FOG     WCI  10
STAPLES        CLOUDY    19  19 100 SE8       30.15S FOG     WCI   9
LONG PRAIRIE   FOG       21  21 100 SE8       30.16S VSB 3/4 WCI  12
LITTLE FALLS   CLOUDY    21  19  93 SE6       30.20S FOG     WCI  14
LITCHFIELD     CLOUDY    27  27 100 SE5       30.20S FOG     WCI  21
BUFFALO        CLOUDY    24  21  89 SE7       30.23S FOG     WCI  16
MAPLE LAKE     CLOUDY    25  24  96 SE6       30.22S FOG     WCI  18
$$
MNZ037-044-045-052-053-191700-
   East Central Minnesota

CITY           SKY/WX    TMP DP  RH WIND       PRES   REMARKS
PRINCETON      CLOUDY    25  19  80 CALM      30.22S FOG
MORA           PTSUNNY   21  18  86 SE5       30.24F WCI  15
CAMBRIDGE      CLOUDY    25  16  68 SE3       30.22S
RUSH CITY      CLOUDY    23  19  85 SE5       30.25S WCI  17
MOOSE LAKE     LGT SNOW  23  19  86 S3        30.21S
HINCKLEY       CLOUDY    23  21  93 CALM      30.24S
CLOQUET        SNOW      21  19  93 SE3       30.22S VSB 1/2
MCGREGOR       CLOUDY    23  19  86 SE9       30.21S WCI  13
$$
MNZ071>073-080-081-089-090-097-098-191700-
   Southwest Minnesota

CITY           SKY/WX    TMP DP  RH WIND       PRES   REMARKS
MONTEVIDEO     CLOUDY    28  28 100 SW5       30.16S FOG     WCI  23
GRANITE FALLS  CLOUDY    29  28  93 SE8       30.18S FOG     WCI  21
CANBY          CLOUDY    30  28  91 S12       30.14S FOG     WCI  20
MARSHALL       CLOUDY    28  25  86 S10       30.15S WCI  19
REDWOOD FALLS  CLOUDY    29  27  92 S10       30.18S FOG     WCI  20
OLIVIA         CLOUDY    30  28  93 S9        30.17F FOG     WCI  22
PIPESTONE      CLOUDY    28  27  93 SW5       30.12S FOG     WCI  23
WINDOM         CLOUDY    30  28  93 S8        30.17S FOG     WCI  23
WORTHINGTON    CLOUDY    28  27  93 S9        30.16S WCI  20
JACKSON        CLOUDY    30  28  93 S12       30.18S FOG     WCI  21
TRACY          CLOUDY    31  28  90 SW7       30.15S FOG     WCI  24
SLAYTON        CLOUDY    28  28  97 SW9       30.15S FOG     WCI  19
$$
MNZ065>067-074>077-082>085-091>093-191700-
   South Central Minnesota

CITY           SKY/WX    TMP DP  RH WIND       PRES   REMARKS
MANKATO        CLOUDY    27  21  80 S8        30.22R WCI  18
NEW ULM        CLOUDY    28  27  93 S8        30.20S FOG     WCI  20
ST JAMES       CLOUDY    30  27  86 S12       30.21S FOG     WCI  21
FAIRMONT       CLOUDY    28  25  86 S12       30.20S WCI  18
GLENCOE        CLOUDY    27  26  96 SE8       30.21S FOG     WCI  19
FARIBAULT      CLOUDY    27  23  86 SE6       30.24R FOG     WCI  20
OWATONNA       MOSUNNY   27  21  80 SE7       30.23R FOG     WCI  19
WASECA         CLOUDY    28  25  86 SE6       30.23S FOG     WCI  22
ALBERT LEA     MOSUNNY   27  25  93 S8        30.23S FOG     WCI  18
$$
MNZ078>079-086>088-094>096-191700-
   Southeast Minnesota

CITY           SKY/WX    TMP DP  RH WIND       PRES   REMARKS
ROCHESTER      CLOUDY    25  20  81 S9        30.24F WCI  15
RED WING       CLOUDY    27  19  74 SE6       30.27S WCI  20
STANTON        CLOUDY    27  22  80 S5        30.24R WCI  22
DODGE CENTER   CLOUDY    25  21  86 S7        30.23S FOG     WCI  17
WINONA         CLOUDY    28  21  74 SE6       30.30S WCI  22
AUSTIN         CLOUDY    25  21  86 S5        30.24S FOG     WCI  19
PRESTON        CLOUDY    24  20  83 S5        30.26S WCI  18
$$
ABBREVIATIONS USED IN REMARKS
   TC - TEMPERATURES IN CELSIUS
  WCI - WIND CHILL INDEX
   HX - HEAT INDEX
  VSB - VISIBILITY
$$


USA.gov is the U.S. government's official web portal to all federal, state and local government web resources and services.